Change the Weather History Date:

Thursday, January 16, 2014

  Actual Average Record
Temperature  
Mean Temperature 42 °F 42 °F  
Max Temperature 44 °F 47 °F 55 °F (2011)
Min Temperature 40 °F 37 °F 13 °F (1950)
Degree Days  
Heating Degree Days 23 23  
Month to date heating degree days 313 376  
Since 1 July heating degree days 2113 2314  
Cooling Degree Days 0 0  
Month to date cooling degree days 0 0  
Year to date cooling degree days 0 0  
Moisture  
Dew Point 39 °F    
Average Humidity 89    
Maximum Humidity 96    
Minimum Humidity 82    
Precipitation  
Precipitation 0.00 in 0.20 in 1.78 in (1958)
Month to date precipitation 2.39 3.03  
Year to date precipitation 2.39 3.03  
Snow  
Snow 0.00 in - 3.50 in (1954)
Month to date snowfall 0.0  
Since 1 July snowfall 1.1  
Snow Depth 0.00 in    
Sea Level Pressure  
Sea Level Pressure 30.47 in    
Wind  
Wind Speed 6 mph (NNE)    
Max Wind Speed 14 mph    
Max Gust Speed 15 mph    
T = Trace of Precipitation, MM = Missing Value Source: NWS Daily Summary

Daily Weather History Graph

Daily Weather History Graph

Search for Another Location

Airport or City:

Trip Planner

Search our weather history database for the weather conditions in past years. The results will help you decide how hot, cold, wet, or windy it might be!

Date:

Astronomy

Jan. 16, 2014 Rise Set
Actual Time 7:51 AM PST 4:47 PM PST
Civil Twilight 7:16 AM PST 5:21 PM PST
Nautical Twilight 6:38 AM PST 5:59 PM PST
Astronomical Twilight 6:02 AM PST 6:36 PM PST
Moon 5:51 PM PST (1/16) 7:41 AM PST (1/16)
Length of Visible Light 10h 04m
Length of Day
8h 55m
Full, 100% of the Moon is Illuminated
Jan 16
Full
Jan 23
Last Quarter
Jan 30
New
Feb 6
First Quarter
Feb 14
Full

Hourly Weather History & Observations

Time (PST) Temp. Windchill Dew Point Humidity Pressure Visibility Wind Dir Wind Speed Gust Speed Precip Events Conditions
12:21 AM 42.8 °F 39.3 °F 41.0 °F 93% 30.50 in 0.5 mi NNE 5.8 mph - N/A Fog Fog
12:53 AM 43.0 °F 36.4 °F 39.9 °F 89% 30.52 in 0.5 mi NE 12.7 mph - N/A Fog Fog
1:06 AM 42.8 °F 37.0 °F 39.2 °F 87% 30.50 in 0.5 mi North 10.4 mph - N/A Fog Fog
1:18 AM 42.8 °F 38.0 °F 39.2 °F 87% 30.49 in 0.5 mi NNE 8.1 mph - N/A Fog Fog
1:28 AM 42.8 °F 37.5 °F 39.2 °F 87% 30.49 in 0.5 mi NNE 9.2 mph - N/A Fog Fog
1:53 AM 42.1 °F 36.6 °F 39.9 °F 92% 30.52 in 0.2 mi NNE 9.2 mph - N/A Fog Fog
2:22 AM 42.8 °F 39.3 °F 39.2 °F 87% 30.50 in 0.2 mi NNE 5.8 mph - N/A Fog Fog
2:34 AM 42.8 °F 37.0 °F 39.2 °F 87% 30.50 in 0.2 mi North 10.4 mph - N/A Fog Fog
2:44 AM 42.8 °F 36.6 °F 39.2 °F 87% 30.49 in 0.2 mi NNE 11.5 mph - N/A Fog Fog
2:53 AM 42.1 °F 37.1 °F 39.9 °F 92% 30.52 in 0.2 mi North 8.1 mph - N/A Fog Fog
3:53 AM 42.1 °F 37.7 °F 39.0 °F 89% 30.52 in 0.2 mi NNE 6.9 mph - N/A Fog Fog
4:33 AM 41.0 °F 35.8 °F 39.2 °F 93% 30.49 in 0.2 mi North 8.1 mph - N/A Fog Fog
4:43 AM 41.0 °F 35.2 °F 39.2 °F 93% 30.49 in 0.2 mi NNE 9.2 mph - N/A Fog Fog
4:53 AM 41.0 °F 35.2 °F 39.0 °F 93% 30.52 in 0.2 mi NNE 9.2 mph - N/A Fog Fog
5:53 AM 42.1 °F 36.6 °F 39.0 °F 89% 30.52 in 0.2 mi NNE 9.2 mph - N/A Fog Fog
6:06 AM 42.8 °F 38.6 °F 39.2 °F 87% 30.49 in 0.2 mi NE 6.9 mph - N/A Fog Fog
6:19 AM 41.0 °F 37.1 °F 39.2 °F 93% 30.49 in 0.2 mi NNE 5.8 mph - N/A Fog Fog
6:53 AM 41.0 °F 37.1 °F 39.0 °F 93% 30.51 in 0.2 mi NNE 5.8 mph - N/A Fog Fog
7:10 AM 41.0 °F 35.8 °F 37.4 °F 87% 30.49 in 0.2 mi North 8.1 mph - N/A Fog Fog
7:53 AM 41.0 °F 37.1 °F 37.9 °F 89% 30.51 in 0.2 mi ENE 5.8 mph - N/A Fog Fog
8:08 AM 41.0 °F 36.4 °F 37.4 °F 87% 30.49 in 0.2 mi NE 6.9 mph - N/A Fog Fog
8:53 AM 41.0 °F 39.0 °F 39.0 °F 93% 30.53 in 0.2 mi North 3.5 mph - N/A Fog Fog
9:53 AM 41.0 °F 38.0 °F 39.0 °F 93% 30.52 in 0.2 mi NNW 4.6 mph - N/A Fog Fog
10:53 AM 42.1 °F 40.2 °F 39.9 °F 92% 30.51 in 0.2 mi Variable 3.5 mph - N/A Fog Fog
11:53 AM 42.1 °F 40.2 °F 39.9 °F 92% 30.50 in 0.2 mi North 3.5 mph - N/A Fog Fog
12:53 PM 42.1 °F 39.2 °F 39.9 °F 92% 30.48 in 0.2 mi NNE 4.6 mph - N/A Fog Fog
1:29 PM 42.8 °F 41.1 °F 39.2 °F 87% 30.43 in 0.2 mi Variable 3.5 mph - N/A Fog Fog
1:53 PM 42.1 °F 40.2 °F 39.9 °F 92% 30.45 in 0.2 mi NNE 3.5 mph - N/A Fog Fog
2:53 PM 43.0 °F 40.3 °F 39.9 °F 89% 30.45 in 0.2 mi North 4.6 mph - N/A   Overcast
3:38 PM 42.8 °F 40.1 °F 39.2 °F 87% 30.42 in 2.0 mi North 4.6 mph - N/A   Overcast
3:53 PM 43.0 °F 39.5 °F 39.0 °F 86% 30.45 in 2.0 mi North 5.8 mph - N/A   Overcast
4:53 PM 43.0 °F 39.5 °F 37.9 °F 82% 30.45 in 2.0 mi NNE 5.8 mph - N/A   Overcast
5:53 PM 42.1 °F 37.7 °F 37.9 °F 85% 30.43 in 2.0 mi NE 6.9 mph - N/A   Overcast
6:37 PM 42.8 °F 39.3 °F 39.2 °F 87% 30.39 in 1.2 mi NNE 5.8 mph - N/A   Overcast
6:53 PM 42.1 °F 38.4 °F 39.0 °F 89% 30.41 in 0.5 mi NNE 5.8 mph - N/A   Overcast
7:53 PM 42.1 °F 39.2 °F 39.0 °F 89% 30.41 in 0.5 mi NNW 4.6 mph - N/A   Overcast
8:53 PM 41.0 °F 37.1 °F 37.9 °F 89% 30.41 in 0.5 mi NNE 5.8 mph - N/A   Overcast
9:53 PM 41.0 °F 37.1 °F 37.9 °F 89% 30.40 in 0.2 mi North 5.8 mph - N/A Fog Fog
10:36 PM 41.0 °F 39.0 °F 39.2 °F 93% 30.37 in 0.2 mi NNE 3.5 mph - N/A Fog Fog
10:53 PM 41.0 °F 38.0 °F 39.0 °F 93% 30.40 in 0.2 mi NNE 4.6 mph - N/A Fog Fog
11:53 PM 41.0 °F 38.0 °F 39.0 °F 93% 30.38 in 0.2 mi North 4.6 mph - N/A Fog Fog